| time (UTC) | temp F | wind direction | speed MPH | gust MPH | rain 1hr in | rain 24hr in | rain mn in | humidity % | barometer mb |
| 20260510070016 | 69 | 130 | 0.0 | 0.0 | 0.00 | 0.06 | 0.00 | 51 | 1009.3 |
| 20260510064513 | 69 | 130 | 0.0 | 0.0 | 0.00 | 0.06 | 0.00 | 48 | 1008.8 |
| 20260510063008 | 69 | 130 | 0.0 | 0.0 | 0.00 | 0.06 | 0.00 | 49 | 1008.3 |
| 20260510061507 | 71 | 130 | 0.0 | 6.0 | 0.00 | 0.06 | 0.00 | 46 | 1007.9 |
| 20260510060006 | 70 | 43 | 0.0 | 18.0 | 0.00 | 0.06 | 0.00 | 48 | 1007.8 |
| 20260510054503 | 70 | 149 | 14.0 | 25.0 | 0.00 | 0.06 | 0.00 | 48 | 1006.4 |
| 20260510053113 | 70 | 176 | 14.0 | 27.0 | 0.02 | 0.06 | 0.00 | 51 | 1005.0 |
| 20260510051645 | 69 | 154 | 26.0 | 39.0 | 0.04 | 0.06 | 0.00 | 55 | 1004.1 |
| 20260510050056 | 69 | 219 | 15.0 | 25.0 | 0.04 | 0.06 | 0.00 | 59 | 1007.6 |
| 20260510044553 | 67 | 148 | 19.0 | 25.0 | 0.05 | 0.06 | 0.06 | 68 | 1007.3 |
| 20260510043130 | 67 | 223 | 13.0 | 23.0 | 0.04 | 0.04 | 0.04 | 70 | 1010.2 |
| 20260510041553 | 61 | 220 | 12.0 | 17.0 | 0.02 | 0.02 | 0.02 | 91 | 1011.2 |
| 20260510040049 | 67 | 159 | 9.0 | 14.0 | 0.02 | 0.02 | 0.02 | 68 | 1010.0 |
| 20260510034553 | 69 | 336 | 0.0 | 0.0 | 0.01 | 0.01 | 0.01 | 58 | 1011.8 |
| 20260510033050 | 71 | 333 | 0.0 | 4.0 | 0.00 | 0.00 | 0.00 | 55 | 1012.3 |
| 20260510031610 | 72 | 313 | 4.0 | 13.0 | 0.00 | 0.00 | 0.00 | 51 | 1011.7 |
| 20260510030039 | 72 | 353 | 1.0 | 7.0 | 0.00 | 0.00 | 0.00 | 53 | 1010.4 |
| 20260510024537 | 73 | 348 | 0.0 | 5.0 | 0.00 | 0.00 | 0.00 | 49 | 1009.4 |
| 20260510023042 | 74 | 109 | 0.0 | 7.0 | 0.00 | 0.00 | 0.00 | 45 | 1008.1 |
| 20260510021530 | 73 | 123 | 1.0 | 8.0 | 0.00 | 0.00 | 0.00 | 45 | 1007.5 |
| 20260510020028 | 73 | 133 | 0.0 | 3.0 | 0.00 | 0.00 | 0.00 | 48 | 1007.2 |
| 20260510014527 | 73 | 53 | 0.0 | 0.0 | 0.00 | 0.00 | 0.00 | 47 | 1006.9 |
| 20260510013026 | 74 | 148 | 0.0 | 0.0 | 0.00 | 0.00 | 0.00 | 46 | 1006.7 |
| 20260510011526 | 75 | 117 | 0.0 | 0.0 | 0.00 | 0.00 | 0.00 | 43 | 1006.1 |
| 20260510010029 | 77 | 142 | 0.0 | 7.0 | 0.00 | 0.00 | 0.00 | 41 | 1006.0 |
| 20260510004524 | 78 | 116 | 0.0 | 8.0 | 0.00 | 0.00 | 0.00 | 40 | 1005.6 |
| 20260510003024 | 79 | 142 | 5.0 | 10.0 | 0.00 | 0.00 | 0.00 | 38 | 1005.6 |
| 20260510001523 | 80 | 141 | 5.0 | 11.0 | 0.00 | 0.00 | 0.00 | 37 | 1005.5 |
| 20260510000023 | 80 | 126 | 4.0 | 12.0 | 0.00 | 0.00 | 0.00 | 36 | 1005.5 |
| 20260509234524 | 81 | 148 | 5.0 | 12.0 | 0.00 | 0.00 | 0.00 | 36 | 1005.6 |
| 20260509233020 | 81 | 123 | 6.0 | 12.0 | 0.00 | 0.00 | 0.00 | 35 | 1005.6 |
| 20260509231520 | 82 | 126 | 6.0 | 12.0 | 0.00 | 0.00 | 0.00 | 34 | 1005.6 |
| 20260509230020 | 82 | 134 | 7.0 | 12.0 | 0.00 | 0.00 | 0.00 | 32 | 1005.5 |
| 20260509224520 | 83 | 142 | 6.0 | 14.0 | 0.00 | 0.00 | 0.00 | 33 | 1005.5 |
| 20260509223017 | 83 | 114 | 3.0 | 15.0 | 0.00 | 0.00 | 0.00 | 31 | 1005.5 |
| 20260509221517 | 83 | 110 | 4.0 | 16.0 | 0.00 | 0.00 | 0.00 | 30 | 1005.6 |
| 20260509220015 | 84 | 130 | 6.0 | 13.0 | 0.00 | 0.00 | 0.00 | 30 | 1005.6 |
| 20260509214514 | 84 | 138 | 3.0 | 11.0 | 0.00 | 0.00 | 0.00 | 29 | 1005.6 |
| 20260509213013 | 84 | 133 | 6.0 | 14.0 | 0.00 | 0.00 | 0.00 | 29 | 1005.8 |
| 20260509211517 | 84 | 102 | 1.0 | 12.0 | 0.00 | 0.00 | 0.00 | 29 | 1005.9 |
| 20260509210009 | 84 | 170 | 4.0 | 11.0 | 0.00 | 0.00 | 0.00 | 27 | 1006.2 |
| 20260509204507 | 84 | 136 | 0.0 | 8.0 | 0.00 | 0.00 | 0.00 | 30 | 1006.4 |
| 20260509203008 | 84 | 128 | 3.0 | 11.0 | 0.00 | 0.00 | 0.00 | 29 | 1006.6 |
| 20260509201504 | 84 | 92 | 3.0 | 12.0 | 0.00 | 0.00 | 0.00 | 28 | 1006.8 |
| 20260509200001 | 84 | 126 | 0.0 | 7.0 | 0.00 | 0.00 | 0.00 | 28 | 1007.1 |
| 20260509194600 | 83 | 330 | 0.0 | 8.0 | 0.00 | 0.13 | 0.00 | 25 | 1007.2 |
| 20260509193057 | 83 | 130 | 1.0 | 10.0 | 0.00 | 0.13 | 0.00 | 27 | 1007.3 |
| 20260509191555 | 83 | 138 | 6.0 | 10.0 | 0.00 | 0.13 | 0.00 | 28 | 1007.5 |
| 20260509190054 | 83 | 153 | 3.0 | 8.0 | 0.00 | 0.13 | 0.00 | 34 | 1007.7 |
| 20260509184550 | 82 | 152 | 3.0 | 11.0 | 0.00 | 0.14 | 0.00 | 30 | 1007.8 |
| 20260509183049 | 81 | 169 | 0.0 | 6.0 | 0.00 | 0.14 | 0.00 | 34 | 1008.0 |
| 20260509181604 | 81 | 111 | 2.0 | 7.0 | 0.00 | 0.14 | 0.00 | 36 | 1008.1 |
| 20260509180045 | 82 | 209 | 0.0 | 8.0 | 0.00 | 0.14 | 0.00 | 33 | 1008.3 |
| 20260509174544 | 81 | 143 | 0.0 | 5.0 | 0.00 | 0.14 | 0.00 | 35 | 1008.4 |
| 20260509173041 | 80 | 175 | 0.0 | 0.0 | 0.00 | 0.14 | 0.00 | 37 | 1008.6 |
| 20260509171539 | 80 | 237 | 0.0 | 0.0 | 0.00 | 0.14 | 0.00 | 36 | 1008.8 |
| 20260509170036 | 80 | 227 | 2.0 | 5.0 | 0.00 | 0.14 | 0.00 | 34 | 1009.0 |
| 20260509164534 | 79 | 146 | 0.0 | 6.0 | 0.00 | 0.14 | 0.00 | 38 | 1009.1 |
| 20260509163047 | 80 | 236 | 0.0 | 0.0 | 0.00 | 0.14 | 0.00 | 39 | 1009.1 |
| 20260509161528 | 78 | 258 | 0.0 | 0.0 | 0.00 | 0.14 | 0.00 | 41 | 1009.0 |
| 20260509160026 | 76 | 256 | 0.0 | 0.0 | 0.00 | 0.14 | 0.00 | 51 | 1009.1 |
| 20260509154522 | 76 | 258 | 0.0 | 0.0 | 0.00 | 0.14 | 0.00 | 55 | 1008.9 |
| 20260509153021 | 74 | 260 | 0.0 | 0.0 | 0.00 | 0.14 | 0.00 | 62 | 1008.8 |
| 20260509151516 | 73 | 259 | 0.0 | 0.0 | 0.00 | 0.14 | 0.00 | 67 | 1009.0 |
| 20260509150011 | 71 | 255 | 0.0 | 0.0 | 0.00 | 0.14 | 0.00 | 71 | 1008.9 |
| 20260509144508 | 70 | 294 | 0.0 | 0.0 | 0.00 | 0.14 | 0.00 | 75 | 1008.7 |
| 20260509143003 | 67 | 291 | 0.0 | 0.0 | 0.00 | 0.14 | 0.00 | 82 | 1008.7 |
| 20260509141559 | 65 | 273 | 0.0 | 0.0 | 0.00 | 0.14 | 0.00 | 84 | 1008.9 |
| 20260509140109 | 63 | 303 | 0.0 | 0.0 | 0.00 | 0.14 | 0.00 | 85 | 1008.9 |
| 20260509134554 | 61 | 304 | 0.0 | 0.0 | 0.00 | 0.14 | 0.00 | 88 | 1008.9 |
| 20260509133101 | 60 | 303 | 0.0 | 4.0 | 0.00 | 0.14 | 0.00 | 88 | 1008.9 |
| 20260509131551 | 60 | 290 | 0.0 | 0.0 | 0.00 | 0.14 | 0.00 | 88 | 1008.7 |
| 20260509130049 | 58 | 142 | 0.0 | 0.0 | 0.00 | 0.14 | 0.00 | 91 | 1008.7 |
| 20260509124553 | 57 | 142 | 0.0 | 0.0 | 0.00 | 0.14 | 0.00 | 94 | 1008.6 |
| 20260509123048 | 55 | 142 | 0.0 | 0.0 | 0.00 | 0.14 | 0.00 | 97 | 1008.5 |
| 20260509121546 | 53 | 142 | 0.0 | 0.0 | 0.00 | 0.14 | 0.00 | 97 | 1008.3 |
| 20260509120046 | 53 | 142 | 0.0 | 0.0 | 0.00 | 0.14 | 0.00 | 97 | 1008.1 |
| 20260509114554 | 53 | 142 | 0.0 | 0.0 | 0.00 | 0.14 | 0.00 | 97 | 1008.1 |
| 20260509113046 | 53 | 142 | 0.0 | 0.0 | 0.00 | 0.14 | 0.00 | 97 | 1007.8 |
| 20260509111545 | 52 | 142 | 0.0 | 0.0 | 0.00 | 0.14 | 0.00 | 96 | 1007.8 |
| 20260509110048 | 52 | 141 | 0.0 | 0.0 | 0.00 | 0.14 | 0.00 | 96 | 1007.8 |
| 20260509104543 | 52 | 142 | 0.0 | 0.0 | 0.00 | 0.14 | 0.00 | 96 | 1007.8 |
| 20260509103041 | 53 | 142 | 0.0 | 0.0 | 0.00 | 0.14 | 0.00 | 96 | 1007.8 |
| 20260509101540 | 54 | 142 | 0.0 | 0.0 | 0.00 | 0.14 | 0.00 | 96 | 1007.9 |
| 20260509100040 | 54 | 142 | 0.0 | 0.0 | 0.00 | 0.14 | 0.00 | 96 | 1008.0 |
| 20260509094539 | 54 | 142 | 0.0 | 0.0 | 0.00 | 0.14 | 0.00 | 97 | 1008.0 |
| 20260509093037 | 54 | 142 | 0.0 | 0.0 | 0.00 | 0.14 | 0.00 | 96 | 1008.0 |
| 20260509091537 | 53 | 142 | 0.0 | 0.0 | 0.00 | 0.14 | 0.00 | 95 | 1008.1 |
| 20260509090035 | 54 | 142 | 0.0 | 0.0 | 0.00 | 0.14 | 0.00 | 95 | 1008.2 |
| 20260509084537 | 54 | 142 | 0.0 | 0.0 | 0.00 | 0.14 | 0.00 | 95 | 1008.1 |
| 20260509083031 | 54 | 142 | 0.0 | 0.0 | 0.00 | 0.14 | 0.00 | 95 | 1008.1 |
| 20260509081530 | 54 | 141 | 0.0 | 0.0 | 0.00 | 0.14 | 0.00 | 94 | 1008.2 |
| 20260509080040 | 54 | 142 | 0.0 | 0.0 | 0.00 | 0.14 | 0.00 | 93 | 1008.3 |
| 20260509074528 | 55 | 142 | 0.0 | 0.0 | 0.00 | 0.14 | 0.00 | 92 | 1008.2 |
| 20260509073038 | 56 | 142 | 0.0 | 0.0 | 0.00 | 0.14 | 0.00 | 91 | 1008.4 |
| 20260509071523 | 56 | 142 | 0.0 | 0.0 | 0.00 | 0.14 | 0.00 | 92 | 1008.3 |